Theta_e
305 307 308 308 308 309 309 309 310 309 309 308 307 306 305 305 306 307 307 309 311 312 314 318 324 324 325 322 318 327 332 329 324
308 308 308 308 308 309 309 309 310 310 310 310 310 309 307 306 305 305 306 307 308 308 308 308 308 309 309 309 311 315 322 331 332
308 308 308 308 309 309 309 309 309 309 310 310 310 310 309 307 306 305 305 306 306 306 306 306 307 307 307 307 307 308 312 317 325
308 309 309 309 309 309 309 309 309 309 309 309 310 310 309 308 307 306 306 306 306 305 305 305 305 305 305 307 307 307 307 308 311
309 309 310 309 309 309 309 309 309 308 308 309 309 309 308 307 306 305 306 306 306 304 304 304 303 304 305 305 306 306 307 307 307
309 310 309 309 309 309 309 309 308 308 308 308 308 308 308 307 305 305 304 306 309 304 304 304 304 305 306 306 306 307 307 307 307
310 309 309 309 309 309 308 308 308 308 308 307 308 308 308 307 305 304 305 313 320 319 316 315 313 318 316 317 319 320 314 309 307
309 309 309 309 309 309 308 307 307 307 307 307 307 308 307 307 306 306 306 310 320 320 320 320 320 320 314 314 315 314 311 310 312
309 308 309 309 309 308 307 307 307 306 306 306 307 308 307 308 307 308 308 309 314 316 316 316 317 314 318 320 319 315 315 311 308
308 308 309 309 308 307 307 307 306 306 306 306 307 307 307 307 309 308 308 308 308 315 318 317 317 316 317 319 319 319 316 312 312
308 308 309 308 307 307 306 306 306 306 306 306 307 307 307 308 308 308 307 308 308 308 313 317 318 318 317 318 318 317 318 315 315
308 308 308 307 307 306 306 306 306 306 306 306 307 307 307 307 307 306 306 307 308 308 308 308 309 311 316 318 320 319 315 314 314
308 308 307 307 306 306 306 306 306 306 306 306 307 307 308 307 306 305 305 305 305 306 306 307 308 308 310 316 317 320 317 315 314
308 307 307 306 306 306 306 306 306 306 306 306 307 310 307 307 307 307 305 304 304 303 301 300 302 304 307 307 313 317 318 318 318
307 307 306 306 306 306 306 305 305 306 306 307 307 310 311 309 306 307 306 306 306 306 306 305 302 301 303 306 307 311 317 316 317
307 307 306 306 306 305 305 305 305 305 305 306 306 308 309 310 306 307 306 306 305 305 305 305 304 303 302 302 302 305 307 314 313
307 306 306 306 305 305 305 304 304 304 304 305 305 305 308 307 306 306 306 306 304 304 305 305 304 304 304 303 303 302 302 305 306
306 306 306 306 305 305 305 304 304 304 304 304 304 305 304 304 306 305 305 304 303 303 303 303 304 304 303 303 303 303 303 303 303
306 306 306 306 306 305 305 304 303 303 303 303 303 303 303 303 304 304 304 302 302 302 302 302 304 304 303 303 302 302 302 302 302
306 306 306 306 305 305 305 304 303 303 302 302 301 302 302 302 302 302 302 302 302 302 302 302 302 303 303 302 302 301 301 301 300
Wind_Speed
8 8 9 9 9 9 9 9 9 9 9 9 8 8 7 6 5 5 4 5 7 10 11 12 12 12 12 12 10 9 7 7 7
8 9 9 9 9 10 10 10 10 10 10 10 9 8 8 7 6 5 5 5 8 10 10 10 10 12 13 13 12 11 11 8 7
8 8 9 9 10 10 10 10 10 10 10 10 10 9 9 8 7 6 5 5 7 10 10 9 8 7 8 9 10 11 11 12 11
7 8 9 9 9 10 10 10 10 10 10 10 10 10 10 9 8 7 6 6 8 9 7 6 6 7 7 7 9 10 10 10 11
6 8 9 9 9 10 10 9 9 9 9 9 9 9 9 9 7 7 7 8 9 9 5 4 4 4 5 7 7 8 7 7 8
6 7 9 9 10 10 10 11 11 10 10 10 9 9 9 8 7 6 7 8 9 9 7 5 4 3 5 6 7 7 7 7 7
5 7 8 9 10 11 11 11 11 10 9 10 9 9 9 8 7 7 7 10 13 14 12 10 9 7 7 8 8 7 7 6 7
5 6 8 9 10 10 10 9 9 9 9 9 9 10 9 10 8 7 8 8 9 7 7 6 6 8 7 7 7 8 9 8 7
4 6 8 8 9 9 10 10 10 10 9 9 9 9 9 9 9 8 8 6 8 9 3 6 5 7 10 10 13 10 9 8 7
4 5 7 8 9 10 10 10 9 9 9 8 8 8 8 8 9 8 8 7 6 9 10 10 9 7 5 6 10 13 11 8 8
3 5 6 8 9 9 9 9 9 8 8 7 7 7 7 8 9 9 9 8 8 7 7 9 10 11 9 8 9 9 9 7 7
3 5 6 7 8 9 10 10 9 8 8 6 6 6 6 7 8 8 9 8 8 7 7 7 8 9 10 10 13 12 11 7 7
3 4 5 6 7 8 8 8 8 8 7 5 4 5 5 6 8 8 9 9 9 8 7 7 6 6 8 9 8 14 13 10 9
1 3 4 5 6 7 8 8 8 8 7 5 3 4 4 6 7 8 9 9 10 10 10 8 6 6 6 6 4 8 12 11 10
1 2 3 5 5 6 7 8 8 8 7 5 2 1 2 3 6 6 7 9 10 10 11 11 8 7 6 5 3 1 3 5 5
1 1 3 4 4 5 6 7 7 7 6 5 1 0 1 2 6 3 5 7 10 10 10 12 9 8 7 7 7 5 6 6 8
2 0 1 3 3 4 5 6 6 7 7 6 2 0 2 3 2 3 5 6 12 10 8 10 9 8 7 7 8 8 6 7 10
3 1 0 1 2 4 5 6 6 7 7 7 5 2 1 7 1 3 5 6 12 10 9 9 8 8 7 8 9 9 9 9 10
5 3 1 1 2 3 4 5 6 7 7 6 6 4 4 3 2 3 2 10 9 8 11 9 6 7 8 8 9 10 10 11 11
6 4 2 2 2 3 4 5 5 6 6 6 6 5 5 4 5 6 9 8 8 12 7 7 8 8 8 9 9 11 12 14 15
Wind_Direction
56 54 50 45 38 33 29 28 26 24 21 18 16 10 359 343 329 314 291 277 272 278 280 274 273 274 274 280 281 281 304 288 280
60 55 49 42 36 30 26 21 20 17 13 13 11 10 8 1 350 328 305 288 281 282 284 286 286 288 288 283 279 274 272 282 288
62 54 43 38 33 28 23 19 15 13 10 6 5 3 1 360 357 344 327 306 287 286 293 290 285 286 288 289 283 275 271 269 270
63 49 40 38 31 26 20 15 10 6 3 -0 358 357 354 354 353 348 339 323 311 312 306 293 291 287 283 284 284 288 283 277 273
54 44 41 32 24 17 12 10 6 4 2 0 357 357 357 352 351 350 345 343 343 344 351 321 303 297 296 292 302 302 305 299 287
51 41 32 24 16 13 9 10 8 5 2 1 2 6 4 5 2 359 359 8 13 14 15 16 6 348 322 329 327 321 317 312 303
50 37 27 17 10 9 6 5 3 360 359 1 5 9 11 15 17 13 26 47 33 26 31 29 37 26 19 18 -0 338 325 311 297
39 30 20 10 7 4 3 2 3 5 7 8 11 18 22 29 29 37 41 45 57 43 42 49 44 39 18 4 343 328 325 315 308
27 23 14 7 5 3 5 8 7 9 10 13 20 23 29 34 33 42 44 50 46 32 42 24 13 26 41 11 357 342 331 323 302
17 18 12 7 5 5 10 13 12 11 15 18 24 28 33 41 41 40 37 34 39 53 41 37 30 20 58 24 5 5 352 339 337
11 16 12 7 5 9 14 17 16 17 17 18 26 33 44 43 36 38 40 42 39 35 43 40 33 33 31 11 0 332 343 355 349
8 14 11 9 11 15 17 18 16 14 12 20 25 32 44 45 39 36 36 37 35 31 25 22 20 29 29 33 30 4 1 4 0
7 13 12 14 17 23 24 23 23 18 20 24 31 44 52 49 38 36 31 30 28 21 15 13 9 8 18 37 48 24 22 18 9
356 13 18 21 21 24 26 28 27 22 23 28 36 51 66 51 39 33 34 36 30 25 17 12 4 359 356 22 77 50 47 37 34
328 19 26 26 23 23 25 25 26 24 26 34 56 61 36 25 14 25 26 24 21 14 15 14 9 5 356 355 7 312 38 52 39
229 32 33 26 20 24 24 25 23 23 26 25 29 231 266 339 331 350 10 12 11 4 7 8 14 14 5 1 354 318 298 284 297
207 74 31 23 16 20 19 18 18 20 27 27 53 196 247 322 326 337 346 350 357 358 3 7 9 10 13 8 6 1 342 310 310
203 200 345 9 3 10 12 12 13 13 16 21 32 9 7 342 313 335 345 2 348 352 353 351 2 7 9 3 360 0 356 347 338
207 209 232 312 338 353 4 6 9 8 6 7 11 12 357 351 324 336 336 350 347 353 345 353 351 358 359 357 354 350 346 342 336
213 217 232 261 301 330 346 355 357 356 355 355 354 349 347 346 328 321 313 336 347 348 351 352 341 337 345 349 350 346 340 335 331